Погода в Камышине

Хотите узнать прогноз погоды в Камышине? Тогда Вам сюда: Погода в Камышине

Поиск расширенной информации на нашем сайте:

Полезная информация:

Новости сайта



02.01.2020
Опубликован Долгосрочный прогноз погоды по городам России и ближнего зарубежья на январь 2020 года.
Карты: Прогноз на январь и февраль 2020 года, Сравнение прогнозируемой аномалии приземной температуры воздуха на январь 2020 года по разным моделям.




Погода в Камышине - сегодня

Время (UTC), дата Ветер
(°,м/с) 
Видим.   Явления Облачность Т
(°С)
Тd
(°С)
f(%) Тe
(°С)
Pmin
(гПа)
dP
(гПа)
Po
(мм)
O2
(г/м3)
Тmin Tmax R s Состояние
почвы
21 22.10.20 170 (Ю) 20000 м    10/10 600 м 
[Sc]
+8.3 +1.5 62 +7  1021.4  -1.7  755  295           
00 23.10.20 200 (Ю) 20000 м    10/4 600 м средняя 
[Sc|Ac As]
+8.6 +2.4 65 +7  1019.7  -1.7  753  294           
03 23.10.20 210 (ЮЗ) 20000 м    9/0 средняя 
[Ac und]
+8.7 +2.8 66 +8  1018.1  -1.5  752  293  +7.7         
06 23.10.20 210 (ЮЗ) 10 км  {ливн. осадки}  9/3 600 м средняя 
[Sc|Ac cuf]
+10.6 +6.2 74 +10  1017.3  -0.7  752  291           
09 23.10.20 240 (ЮЗ) 9-13{14}  10 км    4/0 средняя 
[Ac cast]
+17.1 +4.9 44 +16  1015.1  -1.8  750  284           
12 23.10.20 270 (З) 7-11{15}  10 км    8/3 1000 м средняя, верхняя 
[Sc|Ac trans|Ci fib]
+19.2 +4.3 37 +19  1014.2  -0.8  750  282           
15 23.10.20 260 (З) 4{12}  10 км    9/0 верхняя 
[Ci sp]
+15.1 +5.4 52 +15  1014.8  0.4  750  286    +19.2       
18 23.10.20 290 (З) 98  13000 м  в посл. час ливневой дождь{туман}  10/0 200 м верхняя 
[Ci sp]
+13.6 +5.4 58 +8  1014.8  0.1  750  287           
21 23.10.20 270 (З) 5{10}  20000 м    9/0 средняя, верхняя 
[Ac trans|Ci sp]
+14.7 +6 56 +14  1014.3  -0.4  750  286           
00 24.10.20 220 (ЮЗ) 10 км    10/4 600 м средняя 
[Sc|Ac und]
+13.2 +6.6 64 +13  1013.6  -0.8  749  287           
03 24.10.20 230 (ЮЗ) 10 км    10/0 средняя 
[Ac und]
+13.3 +5 57 +13  1011.9  -1.6  748  287  +12.8         
06 24.10.20 260 (З) 6-10{10}  10 км    3/0 средняя 
[Ac trans]
+14.7 +7 60 +14  1012.1  0.2  748  285           
09 24.10.20 280 (З) 6-10{12}  10 км    9/0 верхняя 
[Ci sp]
+18.1 +7.4 50 +18  1011.5  -0.4  748  281           
12 24.10.20 280 (З) 6{11}  10 км    10/0 верхняя 
[Cs]
+19.6 +7.3 45 +20  1011.6  -0.1  748  280           
15 24.10.20 310 (СЗ) 10 км    10/0 средняя 
[Ac As]
+16.6 +6.9 53 +17  1012.6  0.9  749  283    +20       
18 24.10.20 260 (З) 10 км    10/0 средняя 
[Ac As]
+14.5 +6.7 59 +15  1013.3  0.5  749  285           
21 24.10.20 240 (ЮЗ) 10 км    10/3 600 м средняя 
[Sc|Ac lent]
+13.2 +7.4 68 +14  1013.1  -0.2  749  287           
00 25.10.20 270 (З) 10 км  {ливн. осадки}  10/5 600 м средняя 
[Sc|Ac lent]
+12.6 +8.6 77 +13  1011.9  -1.2  748  287           
03 25.10.20 220 (ЮЗ) 10 км    10/6 600 м средняя 
[Sc|Ac lent]
+12.1 +8.6 79 +12  1010.5  -1.5  747  287  +11.8         
06 25.10.20 240 (ЮЗ) 10 км    10/8 600 м средняя 
[Sc|Ac As]
+14.1 +9 71 +14  1009.4  -0.9  746  284           
09 25.10.20 270 (З) 8-11{12}  10 км  {ливн. осадки}  3/1 600 м средняя 
[Sc|Ac trans]
+16.4 +7.5 56 +16  1007.9  -1.4  745  282           
12 25.10.20 290 (З) 13-19{19}  10 км  {ливн. осадки}  9/9 600 м 
[Sc]
+15.4 +5.8 53 +14  1008.2  0.3  745  283           
15 25.10.20 310 (СЗ) 9-15{21}  20000 м    10/10 600 м 
[Sc]
+11.5 +4.6 63 +10  1013.2  4.7  749  289    +17.3       
18 25.10.20 320 (СЗ) 6-10{15}  20000 м    1/1 600 м 
[Sc]
+8.8 +3.2 68 +7  1016.6  3.2  751  293           
21 25.10.20 300 (СЗ) 4{11}  10 км    ясно 
+6.3 +3.5 82 +5  1018.5  1.7  753  296           
Время (UTC), дата Ветер
(°,м/с) 
Видим.   Явления Облачность Т
(°С)
Тd
(°С)
f(%) Тe
(°С)
Pmin
(гПа)
dP
(гПа)
Po
(мм)
O2
(г/м3)
Тmin Tmax R s Состояние
почвы

Для получения пояснительной информации подведите курсор к названию столбца.

ПОГОДА в Камышине - архив

Всё, что Вы хотите узнать о погоде в Камышине - удобно и подробно!

Выберите нужную дату (начиная с 1 января 2019* года) и нажмите кнопку "Найти".
Будут отображены архивные сводки погоды по пункту Камышин, начиная с указанной даты.


Отображать данные в формате CSV (для использования в таблицах Excel)


Внимание! Наш архив погоды предназначен исключительно для личного некоммерческого использования в познавательных целях. Если Вам необходимы официальные справки о состоянии погоды (для производственных, юридических, коммерческих и т.п. целей), обращайтесь в органы Росгидромета.

*Примечание: данная дата относится к архиву по метеостанциям СССР (Россия, СНГ, Балтия).
Архив по метеостанциям Зарубежной Европы и Азии (кроме Китая) хранится 10 дней, по другим регионам земного шара (Китай, Африка, Америка, Австралия, Океания) - 1 день.

Камышин - район местоположения метеостанции


Название, широта, долгота, высота метеостанции:
Камышин 50.1°ш. 45.4°д. 119 м над ур. моря [Российская Федерация]

Дополнительная информация

В oтличие oт бoльшинства пoгoдных сайтoв мы публикуем пoдрoбную метеoинфoрмацию в детальнoм прoфессиoнальнoм фoрмате.

Характеристики температуры и влажнoсти вoздуха измеряются на высoте 2 м в тени вдали oт зданий и деревьев.
Скoрoсть ветра измеряется на высoте 10 м (на урoвне рoста челoвека скoрoсть ветра ниже в 1.5-2 раза). Если метеoстанция нахoдится в гoрoде или в лесу, тo скoрoсть ветра занижена на 2-4 м/с пo сравнению с oткрытым местoм. Скoрoсть ветра над акватoриями крупных рек и oзёр, а также на вершинах хoлмoв на 2-5 м/с выше, чем в oбычных услoвиях.
Атмoсфернoе давление в разных тoчках местнoсти мoжет значительнo oтличаться oт давления на метеoстанции, в зависимoсти oт услoвий рельефа (при пoдъёме на 10 м давление пoнижается примернo на 1 мм рт.ст.).